Flag for U.S.A. Weather past 2 weeks in Pembroke Pines, Florida, U.S.A.

Now
90 °F

Passing clouds.


Feels Like: 98 °F
Forecast: 78 / 90 °F
Wind: 14 mph from Southeast

Location: North Perry Airport

Current Time: Jul 4, 2015 at 1:18:48 PM

Latest Report: Jul 4, 2015 at 12:53 PM


Visibility: 10 mi

Pressure: 30.13 "Hg

Humidity: 57%

Dew point: 73 °F

Location of Pembroke PinesLocation

Historic Weather in Pembroke Pines — Graph

°F

Pembroke Pines temperature yesterday

Maximum temperature yesterday: 92 °F (at 11:53 AM)
Minimum temperature yesterday: 79 °F (at 11:53 PM)
Average temperature yesterday: 85 °F

Past Weeks' High & Low Weather Summary

 TemperatureHumidityPressure
High95 °F (Jun 29, 1:53 PM)90% (Jun 20, 5:53 AM)30.18 "Hg (Jun 20, 5:53 AM)
Low75 °F (Jun 29, 6:53 AM)37% (Jun 30, 12:53 PM)30.04 "Hg (Jun 28, 4:53 AM)
Average85 °F68%30.10 "Hg
* Reported Jun 19 11:53 AM — Jul 4 11:53 AM, Pembroke Pines, Weather by CustomWeather, © 2015

Note: Actual official high and low records may vary slightly from our data, if they occured in-between our weather recording intervals... More about our weather records

Advertising

Pembroke Pines weather history for previous 24 hours

 ConditionsComfort  
Time TempWeatherWind HumidityBarometerVisibility
11:53 AM
Sat, Jul 4
88 °FBroken clouds.16 mph61%30.14 "Hg10 mi
10:53 AM89 °FBroken clouds.12 mph59%30.13 "Hg10 mi
10:01 AM87 °FScattered clouds.8 mph63%30.13 "Hg10 mi
8:53 AM86 °FSunny.7 mph70%30.12 "Hg10 mi
7:53 AM82 °FSunny.No wind85%30.11 "Hg10 mi
6:53 AM78 °FClear.No wind90%30.09 "Hg10 mi
5:53 AM77 °FPassing clouds.3 mph90%30.08 "Hg10 mi
4:53 AM77 °FClear.No wind90%30.07 "Hg10 mi
3:53 AM78 °FClear.5 mph87%30.07 "Hg10 mi
2:53 AM78 °FPassing clouds.No wind90%30.09 "Hg10 mi
1:53 AM78 °FClear.No wind87%30.10 "Hg10 mi
12:53 AM80 °FMostly cloudy.3 mph79%30.12 "Hg10 mi
11:53 PM
Fri, Jul 3
79 °FPassing clouds.No wind77%30.12 "Hg10 mi
10:53 PM81 °FPartly cloudy.10 mph69%30.13 "Hg10 mi
9:53 PM84 °FPartly cloudy.5 mph74%30.11 "Hg10 mi
8:53 PM84 °FSunny.3 mph65%30.09 "Hg10 mi
7:53 PM84 °FSunny.7 mph65%30.09 "Hg10 mi
6:53 PM86 °FSunny.18 mph67%30.04 "Hg10 mi
5:53 PM86 °FPassing clouds.5 mph61%30.07 "Hg10 mi
4:53 PM88 °FPassing clouds.9 mph59%30.08 "Hg10 mi
3:53 PM91 °FBroken clouds.13 mph54%30.08 "Hg10 mi
2:53 PM92 °FPassing clouds.13 mph54%30.07 "Hg10 mi
1:53 PM92 °FScattered clouds.14 mph54%30.09 "Hg10 mi
Weather by CustomWeather, © 2015

See weather overviewHow to use our weather pages